Moses Lake, WA
on Sunday, December 2, 2012

Sunday
Previous Day Next Day
Daily Summary
 ActualAverageRecord
Temperature
Mean Temperature °F 31°F  
Max Temperature 52°F 38°F 52°F (2012)
Min Temperature 40°F 25°F -10°F (1985)
Degree Days
Heating Degree Days 19 34  
Month to date heating degree days 38 67  
Since 1 July heating degree days 1306 1528  
Cooling Degree Days 0 0  
Month to date cooling degree days 0 0  
Year to date cooling degree days 719 615  
Moisture
Dew Point 37°F   
Average Humidity 68    
Maximum Humidity 89    
Minimum Humidity 46    
Precipitation
Precipitation 0.35 in 0.04 in 0.46 in (1979)
Month to date precipitation 0.37 0.08  
Year to date precipitation 8.11 7.75  
Wind
Wind Speed 12 mph   
Max Wind Speed 26 mph   
Max Gust Speed 35 mph   
Visibility 7 miles   
Events Fog , Rain   

Key: T is trace of precipitation, MM is missing value
Source: NWS Daily Summary
Time(PST)TemperatureDew PointHumidity Pressure Visibility Wind DirectionWind SpeedGust SpeedPrecipitationEvents Conditions
12:52 AM 45.0°F 39.9°F 82% 29.40 in 10.0 miles ESE 11.5 mph - N/A   Overcast
1:52 AM 45.0°F 39.9°F 82% 29.34 in 10.0 miles ESE 18.4 mph 24.2 mph 0.01 in Rain Light Rain
2:52 AM 44.1°F 39.9°F 85% 29.44 in 7.0 miles ESE 17.3 mph - 0.06 in Rain Rain
3:52 AM 43.0°F 39.9°F 89% 29.26 in 7.0 miles East 13.8 mph - 0.12 in Rain Light Rain
4:52 AM 43.0°F 39.9°F 89% 29.22 in 7.0 miles East 6.9 mph - 0.02 in Rain Light Rain
5:11 AM 42.8°F 39.2°F 87% 29.20 in 5.0 miles Calm Calm - 0.02 in Rain Light Rain
5:52 AM 43.0°F 39.9°F 89% 29.23 in 7.0 miles West 5.8 mph - 0.09 in Rain Light Rain
6:17 AM 42.8°F 39.2°F 87% 29.23 in 6.0 miles Calm Calm - 0.03 in Rain Light Rain
6:52 AM 42.1°F 39.0°F 89% 29.22 in 10.0 miles SSE 4.6 mph - 0.05 in   Overcast
7:22 AM 41.0°F 37.4°F 87% 29.20 in 1.8 miles South 3.5 mph - N/A   Mostly Cloudy
7:29 AM 41.0°F 39.2°F 93% 29.21 in 3.0 miles SW 3.5 mph - N/A   Overcast
7:52 AM 42.1°F 39.0°F 89% 29.24 in 10.0 miles SSW 5.8 mph - N/A   Scattered Clouds
8:00 AM 42.8°F 39.2°F 87% 29.24 in 1.5 miles SW 4.6 mph - N/A   Mostly Cloudy
8:09 AM 41.0°F 39.2°F 93% 29.24 in 0.8 miles SW 5.8 mph - N/A   Mostly Cloudy
8:18 AM 41.0°F 39.2°F 93% 29.25 in 1.5 miles WSW 4.6 mph - N/A   Overcast
8:28 AM 42.8°F 39.2°F 87% 29.25 in 0.2 miles SW 6.9 mph - N/A Fog Fog
8:52 AM 42.1°F 39.9°F 92% 29.28 in 0.2 miles WSW 5.8 mph - N/A Fog Fog
9:25 AM 44.6°F 41.0°F 87% 29.29 in 1.0 miles WSW 8.1 mph - N/A   Mostly Cloudy
9:28 AM 44.6°F 42.8°F 93% 29.29 in 4.0 miles WSW 9.2 mph - N/A   Mostly Cloudy
9:37 AM 42.8°F 41.0°F 93% 29.30 in 10.0 miles SW 11.5 mph - N/A   Mostly Cloudy
9:52 AM 43.0°F 39.9°F 89% 29.32 in 10.0 miles SW 11.5 mph - N/A   Partly Cloudy
10:52 AM 48.9°F 39.0°F 69% 29.51 in 10.0 miles SW 16.1 mph 24.2 mph N/A   Partly Cloudy
11:52 AM 52.0°F 32.0°F 47% 29.42 in 10.0 miles WSW 20.7 mph 28.8 mph N/A   Clear
12:52 PM 51.1°F 32.0°F 48% 29.47 in 10.0 miles WSW 15.0 mph 26.5 mph N/A   Clear
1:52 PM 52.0°F 32.0°F 47% 29.52 in 10.0 miles SW 12.7 mph 21.9 mph N/A   Clear
2:52 PM 50.0°F 30.0°F 46% 29.70 in 10.0 miles SW 11.5 mph - N/A   Clear
3:52 PM 48.2°F 32.0°F 54% 29.60 in 10.0 miles WSW 8.1 mph - N/A   Clear
4:52 PM 46.0°F 33.1°F 61% 29.66 in 10.0 miles SSW 9.2 mph - N/A   Clear
5:52 PM 46.0°F 33.1°F 61% 29.68 in 10.0 miles SSW 15.0 mph - N/A   Clear
6:52 PM 44.1°F 33.1°F 65% 29.71 in 10.0 miles South 9.2 mph - N/A   Clear
7:52 PM 44.1°F 34.0°F 68% 29.73 in 10.0 miles South 12.7 mph - N/A   Clear
8:52 PM 41.0°F 34.0°F 76% 29.75 in 10.0 miles SSE 8.1 mph - N/A   Clear
9:52 PM 45.0°F 34.0°F 65% 29.77 in 10.0 miles South 15.0 mph - N/A   Clear
10:52 PM 44.1°F 34.0°F 68% 29.94 in 10.0 miles South 9.2 mph - N/A   Clear
11:52 PM 45.0°F 34.0°F 65% 29.81 in 10.0 miles South 11.5 mph - N/A   Clear
Moon Phase
Dec. 02 Dec. 06 Dec. 13 Dec. 20 Dec. 28
Sunrise:07:24 AM (PST) Moon Rise:08:08 PM (PST)
Sunset:04:08 PM (PST) Moon Set:10:11 AM (PST)

Copyright © 2014 The Weather Underground, Inc.